FW4331 Weather Reports


time (UTC)temp
C
wind
direction
speed
KPH
gust
KPH
rain 1hr
cm
rain 24hr
cm
rain mn
cm
humidity
%
barometer
mb
20260506040044 21 261 3.2 20.9 0.00 0.00 0.00 41 1008.9
20260506034532 20 223 0.0 12.9 0.00 0.00 0.00 41 1008.9
20260506033029 21 235 1.6 11.3 0.00 0.00 0.00 40 1009.0
20260506031527 20 231 1.6 12.9 0.00 0.00 0.00 39 1009.0
20260506030025 21 226 0.0 11.3 0.00 0.00 0.00 38 1008.9
20260506024533 21 224 3.2 12.9 0.00 0.00 0.00 37 1009.1
20260506023022 21 231 3.2 8.0 0.00 0.00 0.00 35 1008.9
20260506021538 21 238 0.0 9.7 0.00 0.00 0.00 34 1009.0
20260506020018 21 224 3.2 11.3 0.00 0.00 0.00 33 1009.1
20260506014523 22 233 0.0 8.0 0.00 0.00 0.00 32 1008.9
20260506013014 22 186 3.2 11.3 0.00 0.00 0.00 29 1008.7
20260506011521 23 201 3.2 11.3 0.00 0.00 0.00 28 1008.6
20260506010012 23 219 4.8 19.3 0.00 0.00 0.00 27 1008.4
20260506004508 23 262 4.8 16.1 0.00 0.00 0.00 27 1008.2
20260506003007 23 254 4.8 11.3 0.00 0.00 0.00 26 1008.1
20260506001504 24 193 1.6 16.1 0.00 0.00 0.00 24 1007.8
20260506000003 24 251 4.8 14.5 0.00 0.00 0.00 23 1007.8
20260505234503 25 219 4.8 14.5 0.00 0.00 0.00 22 1007.6
20260505233059 25 238 1.6 19.3 0.00 0.00 0.00 20 1007.6
20260505231557 26 243 14.5 24.1 0.00 0.00 0.00 18 1007.7
20260505230055 26 272 14.5 25.7 0.00 0.00 0.00 16 1007.9
20260505224554 26 236 8.0 20.9 0.00 0.00 0.00 19 1007.7
20260505223104 27 180 6.4 22.5 0.00 0.00 0.00 18 1007.6
20260505221549 27 176 12.9 32.2 0.00 0.00 0.00 17 1007.7
20260505220148 27 246 19.3 32.2 0.00 0.00 0.00 16 1007.7
20260505214553 27 215 11.3 30.6 0.00 0.00 0.00 17 1007.7
20260505213043 27 233 11.3 25.7 0.00 0.00 0.00 18 1007.5
20260505211548 28 252 11.3 35.4 0.00 0.00 0.00 18 1007.4
20260505210038 28 238 11.3 30.6 0.00 0.00 0.00 18 1007.3
20260505204537 27 219 16.1 35.4 0.00 0.00 0.00 17 1007.5
20260505203046 27 240 19.3 33.8 0.00 0.00 0.00 15 1007.4
20260505201529 27 235 14.5 37.0 0.00 0.00 0.00 17 1007.5
20260505200025 27 229 14.5 32.2 0.00 0.00 0.00 16 1007.6
20260505194523 28 255 14.5 38.6 0.00 0.00 0.00 16 1007.7
20260505193020 28 249 12.9 38.6 0.00 0.00 0.00 15 1007.6
20260505191517 28 199 19.3 33.8 0.00 0.00 0.00 15 1008.0
20260505190014 27 187 19.3 35.4 0.00 0.00 0.00 16 1008.3
20260505184516 28 240 14.5 38.6 0.00 0.00 0.00 17 1008.4
20260505183005 27 237 16.1 32.2 0.00 0.00 0.00 19 1008.6
20260505181502 27 221 9.7 24.1 0.00 0.00 0.00 22 1008.8
20260505180109 27 215 14.5 30.6 0.00 0.00 0.00 22 1009.1
20260505174554 27 242 14.5 32.2 0.00 0.00 0.00 24 1009.1
20260505173052 27 257 12.9 27.4 0.00 0.00 0.00 25 1009.1
20260505171548 27 229 14.5 27.4 0.00 0.00 0.00 25 1009.3
20260505170045 26 217 6.4 24.1 0.00 0.00 0.00 26 1009.5
20260505164543 26 229 9.7 22.5 0.00 0.00 0.00 25 1009.7
20260505163039 26 281 9.7 22.5 0.00 0.00 0.00 27 1009.9
20260505161538 25 269 11.3 17.7 0.00 0.00 0.00 26 1010.1
20260505153025 25 286 6.4 17.7 0.00 0.00 0.00 28 1010.6
20260505151524 24 212 4.8 20.9 0.00 0.00 0.00 28 1010.6
20260505140113 21 199 8.0 14.5 0.00 0.00 0.00 36 1010.8
20260505124534 18 286 1.6 6.4 0.00 0.00 0.00 43 1011.1
20260505123026 17 290 3.2 8.0 0.00 0.00 0.00 44 1011.1
20260505121521 16 274 1.6 11.3 0.00 0.00 0.00 46 1011.2
20260505120018 16 259 1.6 8.0 0.00 0.00 0.00 46 1011.1
20260505114513 16 269 4.8 12.9 0.00 0.00 0.00 46 1011.0
20260505113009 16 262 0.0 9.7 0.00 0.00 0.00 47 1010.9
20260505111510 15 238 3.2 11.3 0.00 0.00 0.00 47 1010.6
20260505101555 15 248 1.6 14.5 0.00 0.00 0.00 48 1010.1
20260505100049 15 203 3.2 12.9 0.00 0.00 0.00 49 1010.1
20260505094555 15 231 3.2 12.9 0.00 0.00 0.00 49 1010.1
20260505093052 15 231 3.2 14.5 0.00 0.00 0.00 49 1009.9
20260505091541 15 282 3.2 9.7 0.00 0.00 0.00 49 1009.9
20260505090037 15 257 4.8 12.9 0.00 0.00 0.00 49 1009.8
20260505084536 15 221 3.2 11.3 0.00 0.00 0.00 49 1009.8
20260505083016 15 224 0.0 14.5 0.00 0.00 0.00 49 1009.7
20260505081514 15 276 1.6 14.5 0.00 0.00 0.00 49 1009.7
20260505080023 15 234 6.4 17.7 0.00 0.00 0.00 49 1009.5
20260505074509 15 248 4.8 11.3 0.00 0.00 0.00 51 1009.6
20260505073006 15 246 0.0 11.3 0.00 0.00 0.00 51 1009.4
20260505071503 15 234 3.2 11.3 0.00 0.00 0.00 52 1009.4
20260505070002 14 215 0.0 9.7 0.00 0.00 0.00 55 1009.4
20260505064559 13 230 0.0 1.6 0.00 0.00 0.00 57 1009.3
20260505063057 13 246 0.0 3.2 0.00 0.00 0.00 56 1009.2
20260505061613 13 224 0.0 3.2 0.00 0.00 0.00 56 1009.2
20260505060057 13 258 0.0 0.0 0.00 0.00 0.00 58 1009.3
20260505054555 13 257 0.0 0.0 0.00 0.00 0.00 57 1009.3
20260505053045 14 257 0.0 0.0 0.00 0.00 0.00 56 1009.3
20260505051542 14 217 0.0 0.0 0.00 0.00 0.00 56 1009.4
20260505041531 15 238 0.0 0.0 0.00 0.00 0.00 54 1009.3